Tracking 25934 objects as of 11-Aug-2022
HD Live streaming from Space Station
objects crossing your sky now

IUS R/B(2)

Track IUS R/B(2) now!


NORAD ID: 23615
Int'l Code: 1995-035D
Perigee: 35,668.6 km
Apogee: 35,788.8 km
Inclination: 16.6 °
Period: 1,432.8 minutes
Semi major axis: 42099 km
RCS: 5.3271 m2 (large)
Launch date: July 13, 1995
Source: United States (US)
Launch site: AIR FORCE EASTERN TEST RANGE (AFETR)

Note: This is a ROCKET BODY
aabbcc
Your satellite tracking list
Your tracking list is empty




NASA's NSSDC Master Catalog

Two Line Element Set (TLE):
1 23615U 95035D   22222.51379508  .00000014  00000-0  00000-0 0  9992
2 23615  16.5863 354.3938 0014267 125.3607 250.4194  1.00504285 99274
Source of the keplerian elements: AFSPC